Location: Bishop's University Astronomical Observatory
(45.3661°N, 71.8475°W)
Time: 21:46:47
(UTC-05:00)

CZ-4C R/B - Visible Passes

Search period start: 21 November 2014 00:00
Search period end: 01 December 2014 00:00
Orbit: 783 x 1219 km, 63.4° (Epoch: 20 November)

Date Brightness Start Highest point End Pass type
(mag) Time Alt. Az. Time Alt. Az. Time Alt. Az.
21 Nov 4.0 16:45:50 10° W 16:50:33 25° NNW 16:55:40 10° NNE visible
21 Nov 4.4 18:37:58 10° NW 18:41:32 15° N 18:42:58 14° NNE visible
21 Nov 5.0 20:27:28 10° NNW 20:28:10 13° NNW 20:28:10 13° NNW visible
22 Nov 4.3 17:21:08 10° WNW 17:25:09 18° NNW 17:29:27 10° NNE visible
22 Nov 4.5 19:12:24 10° NNW 19:15:34 16° N 19:15:34 16° N visible
23 Nov 4.4 17:56:23 10° NW 17:59:58 16° N 18:02:59 12° NNE visible
23 Nov 4.6 19:46:13 10° NNW 19:48:11 16° N 19:48:11 16° N visible
24 Nov 4.2 16:39:26 10° WNW 16:43:38 19° NNW 16:48:07 10° NNE visible
24 Nov 4.3 18:31:01 10° NNW 18:34:51 16° N 18:35:36 16° NNE visible
24 Nov 4.9 20:19:45 10° NNW 20:20:47 14° NNW 20:20:47 14° NNW visible
25 Nov 4.4 17:14:46 10° NW 17:18:24 16° N 17:22:15 10° NNE visible
25 Nov 4.3 19:04:58 10° NNW 19:08:14 19° N 19:08:14 19° N visible
25 Nov 5.2 20:53:13 10° NNW 20:53:25 11° NNW 20:53:25 11° NNW visible
26 Nov 4.4 17:49:35 10° NNW 17:53:17 16° N 17:55:41 13° NNE visible
26 Nov 4.5 19:38:32 10° NNW 19:40:52 20° N 19:40:52 20° N visible
27 Nov 4.2 18:23:40 10° NNW 18:28:06 19° NNE 18:28:21 19° NNE visible
27 Nov 4.7 20:12:01 10° NNW 20:13:32 18° NNW 20:13:32 18° NNW visible
28 Nov 4.3 17:08:06 10° NNW 17:11:43 15° N 17:15:31 10° NE visible
28 Nov 4.1 18:57:19 10° NNW 19:01:02 23° N 19:01:02 23° N visible
28 Nov 5.1 20:45:31 10° NW 20:46:14 14° NW 20:46:14 14° NW visible
29 Nov 4.2 17:42:21 10° NNW 17:46:34 18° NNE 17:48:34 16° NE visible
29 Nov 4.2 19:30:48 10° NNW 19:33:46 25° N 19:33:46 25° N visible
30 Nov 3.9 18:16:05 10° NNW 18:21:15 23° NNE 18:21:20 23° NNE visible
30 Nov 4.5 20:04:17 10° NW 20:06:32 23° NNW 20:06:32 23° NNW visible
